,,Stat5,,Stat1,,Stat2,,Stat3,,Stat4,,Wind1,,Wind1,
time,status,PA1M_AVG,status,PR1M_SUM,status,RH1M_AVG,status,SR1M_AVG,status,TA1M_AVG,status,W1dAve1m,status,W1sAve1m,
2000-05-19, 00:00:00,VALID,918.025,VALID,0,VALID,98.0509,VALID,0,VALID,19.6776,VALID,168,VALID,0,
2000-05-19, 00:01:00,VALID,918.041,VALID,0,VALID,97.9364,VALID,0.0169808,VALID,19.6421,VALID,168,VALID,0,
2000-05-19, 00:02:00,VALID,918.03,VALID,0,VALID,97.6071,VALID,0,VALID,19.5588,VALID,167,VALID,0,
2000-05-19, 00:03:00,VALID,918.032,VALID,0,VALID,97.3108,VALID,0,VALID,19.4679,VALID,166,VALID,0,
2000-05-19, 00:04:00,VALID,918.03,VALID,0,VALID,97.4214,VALID,-0.0169808,VALID,19.4582,VALID,166,VALID,0,
2000-05-19, 00:05:00,VALID,918.025,VALID,0,VALID,97.8156,VALID,0,VALID,19.5002,VALID,166,VALID,0,
2000-05-19, 00:06:00,VALID,918.036,VALID,0,VALID,98.2264,VALID,0.0169808,VALID,19.6001,VALID,166,VALID,0,
2000-05-19, 00:07:00,VALID,918.048,VALID,0,VALID,98.4591,VALID,0,VALID,19.7037,VALID,166,VALID,0,
2000-05-19, 00:08:00,VALID,918.034,VALID,0,VALID,98.4222,VALID,0,VALID,19.7425,VALID,166,VALID,0,
2000-05-19, 00:09:00,VALID,918.039,VALID,0,VALID,98.5087,VALID,0,VALID,19.7648,VALID,166,VALID,0,
2000-05-19, 00:10:00,VALID,918.01,VALID,0,VALID,98.5722,VALID,0,VALID,19.8227,VALID,166,VALID,0,
2000-05-19, 00:11:00,VALID,917.996,VALID,0,VALID,98.3688,VALID,0,VALID,19.8135,VALID,131,VALID,0,
2000-05-19, 00:12:00,VALID,917.965,VALID,0,VALID,97.4354,VALID,0,VALID,19.5973,VALID,98,VALID,0.25739,
2000-05-19, 00:13:00,VALID,917.965,VALID,0,VALID,97.4456,VALID,0,VALID,19.5941,VALID,84,VALID,0.637541,
2000-05-19, 00:14:00,VALID,917.966,VALID,0,VALID,97.6554,VALID,-0.0169808,VALID,19.5715,VALID,74,VALID,0.589744,
2000-05-19, 00:15:00,VALID,917.94,VALID,0,VALID,98.2607,VALID,0.0169808,VALID,19.7462,VALID,51,VALID,0.154194,
2000-05-19, 00:16:00,VALID,917.938,VALID,0,VALID,98.7465,VALID,0,VALID,19.9756,VALID,6,VALID,0,
2000-05-19, 00:17:00,VALID,917.911,VALID,0,VALID,98.9054,VALID,0,VALID,20.114,VALID,3,VALID,0,
2000-05-19, 00:18:00,VALID,917.898,VALID,0,VALID,98.8723,VALID,-0.0169808,VALID,20.1299,VALID,11,VALID,0,
2000-05-19, 00:19:00,VALID,917.88,VALID,0,VALID,98.4146,VALID,-0.0339617,VALID,19.9848,VALID,69,VALID,0,
2000-05-19, 00:20:00,VALID,917.883,VALID,0,VALID,98.2709,VALID,-0.0339617,VALID,19.9169,VALID,80,VALID,0,
2000-05-19, 00:21:00,VALID,917.881,VALID,0,VALID,98.0611,VALID,0.0169808,VALID,19.8617,VALID,105,VALID,0,
2000-05-19, 00:22:00,VALID,917.879,VALID,0,VALID,97.9225,VALID,0,VALID,19.8361,VALID,105,VALID,0,
2000-05-19, 00:23:00,VALID,917.887,VALID,0,VALID,98.1488,VALID,0,VALID,19.8978,VALID,105,VALID,0,
2000-05-19, 00:24:00,VALID,917.882,VALID,0,VALID,98.281,VALID,0,VALID,19.9457,VALID,105,VALID,0,
2000-05-19, 00:25:00,VALID,917.881,VALID,0,VALID,98.4057,VALID,0,VALID,19.9979,VALID,105,VALID,0,
2000-05-19, 00:26:00,VALID,917.846,VALID,0,VALID,98.5977,VALID,-0.0169808,VALID,20.0663,VALID,108,VALID,0,
2000-05-19, 00:27:00,VALID,917.805,VALID,0,VALID,98.4502,VALID,-0.0339617,VALID,20.0466,VALID,119,VALID,0,
2000-05-19, 00:28:00,VALID,917.768,VALID,0,VALID,98.3256,VALID,0,VALID,20.0211,VALID,119,VALID,0,
2000-05-19, 00:29:00,VALID,917.735,VALID,0,VALID,97.8716,VALID,0,VALID,19.8652,VALID,119,VALID,0,
2000-05-19, 00:30:00,VALID,917.701,VALID,0,VALID,97.7279,VALID,0,VALID,19.8232,VALID,118,VALID,0.115986,
2000-05-19, 00:31:00,VALID,917.251,VALID,0,VALID,97.7292,VALID,-0.0169808,VALID,19.8235,VALID,86,VALID,0.376028,
2000-05-19, 00:32:00,VALID,917.664,VALID,0,VALID,97.3235,VALID,-0.0169808,VALID,19.772,VALID,101,VALID,0.479167,
2000-05-19, 00:33:00,VALID,917.637,VALID,0,VALID,96.9026,VALID,0,VALID,19.7042,VALID,102,VALID,0.482319,
2000-05-19, 00:34:00,VALID,917.633,VALID,0,VALID,97.0005,VALID,0,VALID,19.6684,VALID,102,VALID,0.496795,
2000-05-19, 00:35:00,VALID,917.626,VALID,0,VALID,97.5956,VALID,0.0169808,VALID,19.7228,VALID,99,VALID,0.579975,
2000-05-19, 00:36:00,VALID,917.616,VALID,0,VALID,97.3579,VALID,0,VALID,19.7079,VALID,112,VALID,0.676883,
2000-05-19, 00:37:00,VALID,917.605,VALID,0,VALID,97.3947,VALID,0,VALID,19.701,VALID,104,VALID,0.357936,
2000-05-19, 00:38:00,VALID,917.622,VALID,0,VALID,97.6516,VALID,-0.0169808,VALID,19.7529,VALID,99,VALID,0.511218,
2000-05-19, 00:39:00,VALID,917.632,VALID,0,VALID,97.6821,VALID,0,VALID,19.7884,VALID,133,VALID,0.148849,
2000-05-19, 00:40:00,VALID,917.625,VALID,0,VALID,97.3769,VALID,0,VALID,19.7556,VALID,108,VALID,0.350361,
2000-05-19, 00:41:00,VALID,917.638,VALID,0,VALID,97.1213,VALID,-0.0169808,VALID,19.7427,VALID,84,VALID,0.0643503,
2000-05-19, 00:42:00,VALID,917.645,VALID,0,VALID,96.9548,VALID,-0.0169808,VALID,19.7323,VALID,118,VALID,0.23758,
2000-05-19, 00:43:00,VALID,917.63,VALID,0,VALID,96.9357,VALID,0.0169808,VALID,19.7462,VALID,150,VALID,0,
2000-05-19, 00:44:00,VALID,917.617,VALID,0,VALID,97.0794,VALID,-0.0169808,VALID,19.7688,VALID,182,VALID,0,
2000-05-19, 00:45:00,VALID,917.606,VALID,0,VALID,97.2193,VALID,0,VALID,19.7942,VALID,222,VALID,0,
2000-05-19, 00:46:00,VALID,917.604,VALID,0,VALID,97.2599,VALID,-0.0169808,VALID,19.8364,VALID,222,VALID,0,
2000-05-19, 00:47:00,VALID,917.6,VALID,0,VALID,97.5041,VALID,0,VALID,19.8886,VALID,239,VALID,0,
2000-05-19, 00:48:00,VALID,917.603,VALID,0,VALID,97.0539,VALID,0,VALID,19.8816,VALID,245,VALID,0,
2000-05-19, 00:49:00,VALID,917.594,VALID,0,VALID,95.8752,VALID,0,VALID,19.8041,VALID,245,VALID,0,
2000-05-19, 00:50:00,VALID,917.593,VALID,0,VALID,95.4403,VALID,-0.0339617,VALID,19.7489,VALID,216,VALID,0,
2000-05-19, 00:51:00,VALID,917.571,VALID,0,VALID,94.8833,VALID,0,VALID,19.6779,VALID,149,VALID,0,
2000-05-19, 00:52:00,VALID,917.563,VALID,0,VALID,95.3525,VALID,0,VALID,19.6229,VALID,138,VALID,0,
2000-05-19, 00:53:00,VALID,917.556,VALID,0,VALID,95.9349,VALID,0.0509425,VALID,19.6128,VALID,138,VALID,0,
2000-05-19, 00:54:00,VALID,917.55,VALID,0,VALID,96.202,VALID,0.0679233,VALID,19.6058,VALID,133,VALID,0,
2000-05-19, 00:55:00,VALID,917.57,VALID,0,VALID,96.6776,VALID,0.0679233,VALID,19.6083,VALID,116,VALID,0,
2000-05-19, 00:56:00,VALID,917.576,VALID,0,VALID,96.7844,VALID,0.0849042,VALID,19.615,VALID,113,VALID,0,
2000-05-19, 00:57:00,VALID,917.583,VALID,0,VALID,96.8467,VALID,0.0679233,VALID,19.6152,VALID,113,VALID,0,
2000-05-19, 00:58:00,VALID,917.579,VALID,0,VALID,97.1951,VALID,0.101885,VALID,19.6798,VALID,114,VALID,0,
2000-05-19, 00:59:00,VALID,917.574,VALID,0,VALID,97.1582,VALID,0.0509425,VALID,19.7027,VALID,133,VALID,0,
2000-05-19, 01:00:00,VALID,917.546,VALID,0,VALID,96.9598,VALID,0.0849042,VALID,19.7124,VALID,155,VALID,0,
2000-05-19, 01:01:00,VALID,917.53,VALID,0,VALID,97.1735,VALID,0.0679233,VALID,19.7546,VALID,160,VALID,0,
2000-05-19, 01:02:00,VALID,917.506,VALID,0,VALID,97.0133,VALID,0.0849042,VALID,19.7835,VALID,158,VALID,0,
2000-05-19, 01:03:00,VALID,917.507,VALID,0,VALID,96.8619,VALID,0.101885,VALID,19.7961,VALID,158,VALID,0,
2000-05-19, 01:04:00,VALID,917.507,VALID,0,VALID,96.6559,VALID,0.0849042,VALID,19.7999,VALID,158,VALID,0,
2000-05-19, 01:05:00,VALID,917.505,VALID,0,VALID,96.8963,VALID,0.0679233,VALID,19.8319,VALID,158,VALID,0,
2000-05-19, 01:06:00,VALID,917.488,VALID,0,VALID,96.4194,VALID,0.0509425,VALID,19.8033,VALID,158,VALID,0,
2000-05-19, 01:07:00,VALID,917.478,VALID,0,VALID,96.3533,VALID,0.0509425,VALID,19.7609,VALID,158,VALID,0,
2000-05-19, 01:08:00,VALID,917.455,VALID,0,VALID,96.2567,VALID,0.0339617,VALID,19.7517,VALID,158,VALID,0,
2000-05-19, 01:09:00,VALID,917.441,VALID,0,VALID,96.2465,VALID,-0.0679233,VALID,19.7459,VALID,158,VALID,0,
2000-05-19, 01:10:00,VALID,917.43,VALID,0,VALID,96.8721,VALID,-0.0169808,VALID,19.7917,VALID,158,VALID,0,
2000-05-19, 01:11:00,VALID,917.401,VALID,0,VALID,96.6305,VALID,-0.0339617,VALID,19.7427,VALID,157,VALID,0,
2000-05-19, 01:12:00,VALID,917.388,VALID,0,VALID,96.5415,VALID,-0.0169808,VALID,19.7273,VALID,137,VALID,0,
2000-05-19, 01:13:00,VALID,917.37,VALID,0,VALID,95.8497,VALID,-0.0679233,VALID,19.6468,VALID,133,VALID,0,
2000-05-19, 01:14:00,VALID,917.361,VALID,0,VALID,95.968,VALID,-0.0679233,VALID,19.5817,VALID,116,VALID,0,
2000-05-19, 01:15:00,VALID,917.365,VALID,0,VALID,97.1391,VALID,-0.0339617,VALID,19.6401,VALID,98,VALID,0,
2000-05-19, 01:16:00,VALID,917.355,VALID,0,VALID,97.1391,VALID,-0.0169808,VALID,19.617,VALID,114,VALID,0,
2000-05-19, 01:17:00,VALID,917.342,VALID,0,VALID,97.41,VALID,-0.0339617,VALID,19.6662,VALID,114,VALID,0,
2000-05-19, 01:18:00,VALID,917.329,VALID,0,VALID,97.588,VALID,-0.0169808,VALID,19.6883,VALID,114,VALID,0,
2000-05-19, 01:19:00,VALID,917.323,VALID,0,VALID,97.7228,VALID,-0.0339617,VALID,19.7174,VALID,114,VALID,0,
2000-05-19, 01:20:00,VALID,917.313,VALID,0,VALID,97.7254,VALID,-0.0169808,VALID,19.7241,VALID,114,VALID,0,
2000-05-19, 01:21:00,VALID,917.298,VALID,0,VALID,97.691,VALID,-0.0679233,VALID,19.7171,VALID,114,VALID,0,
2000-05-19, 01:22:00,VALID,917.294,VALID,0,VALID,97.2523,VALID,-0.0509425,VALID,19.6821,VALID,147,VALID,0,
2000-05-19, 01:23:00,VALID,917.281,VALID,0,VALID,97.5626,VALID,-0.0169808,VALID,19.6905,VALID,211,VALID,0,
2000-05-19, 01:24:00,VALID,917.265,VALID,0,VALID,97.7037,VALID,0.0169808,VALID,19.732,VALID,257,VALID,0,
2000-05-19, 01:25:00,VALID,917.269,VALID,0,VALID,97.9822,VALID,0.0849042,VALID,19.7991,VALID,269,VALID,0,
2000-05-19, 01:26:00,VALID,917.281,VALID,0,VALID,97.8322,VALID,0.0339617,VALID,19.8063,VALID,355,VALID,0,
2000-05-19, 01:27:00,VALID,917.296,VALID,0,VALID,96.8479,VALID,0.0509425,VALID,19.7194,VALID,79,VALID,0,
2000-05-19, 01:28:00,VALID,917.301,VALID,0,VALID,97.3299,VALID,0.0509425,VALID,19.7671,VALID,78,VALID,0,
2000-05-19, 01:29:00,VALID,917.302,VALID,0,VALID,97.6948,VALID,0.0509425,VALID,19.8901,VALID,141,VALID,0,
2000-05-19, 01:30:00,VALID,917.291,VALID,0,VALID,96.9675,VALID,0.0679233,VALID,19.8575,VALID,144,VALID,0,
2000-05-19, 01:31:00,VALID,917.304,VALID,0,VALID,95.7111,VALID,0.0849042,VALID,19.7899,VALID,125,VALID,0,
2000-05-19, 01:32:00,VALID,917.303,VALID,0,VALID,95.378,VALID,0.0679233,VALID,19.6831,VALID,116,VALID,0,
2000-05-19, 01:33:00,VALID,917.305,VALID,0,VALID,97.1875,VALID,0.0679233,VALID,19.7708,VALID,117,VALID,0,
2000-05-19, 01:34:00,VALID,917.288,VALID,0,VALID,97.6007,VALID,0,VALID,19.893,VALID,59,VALID,0.488782,
2000-05-19, 01:35:00,VALID,917.266,VALID,0,VALID,97.3782,VALID,0.0509425,VALID,20.0198,VALID,100,VALID,0.156661,
2000-05-19, 01:36:00,VALID,917.25,VALID,0,VALID,96.3902,VALID,0.0509425,VALID,20.0486,VALID,117,VALID,0.00200321,
2000-05-19, 01:37:00,VALID,917.22,VALID,0,VALID,95.7912,VALID,0.0849042,VALID,20.0842,VALID,117,VALID,0.000205592,
2000-05-19, 01:38:00,VALID,917.186,VALID,0,VALID,96.0354,VALID,0,VALID,20.1463,VALID,61,VALID,0.290064,
2000-05-19, 01:39:00,VALID,917.164,VALID,0,VALID,95.687,VALID,-0.0509425,VALID,20.1796,VALID,113,VALID,0.15625,
2000-05-19, 01:40:00,VALID,917.136,VALID,0,VALID,95.0092,VALID,-0.0509425,VALID,20.1761,VALID,120,VALID,0.444311,
2000-05-19, 01:41:00,VALID,917.102,VALID,0,VALID,94.8312,VALID,-0.0169808,VALID,20.1503,VALID,116,VALID,0.405222,
2000-05-19, 01:42:00,VALID,917.075,VALID,0,VALID,94.8693,VALID,-0.0339617,VALID,20.1406,VALID,116,VALID,0,
2000-05-19, 01:43:00,VALID,917.055,VALID,0,VALID,94.8642,VALID,-0.0509425,VALID,20.1083,VALID,116,VALID,0,
2000-05-19, 01:44:00,VALID,917.039,VALID,0,VALID,94.9596,VALID,-0.0849042,VALID,20.0886,VALID,117,VALID,0.0010016,
2000-05-19, 01:45:00,VALID,917.01,VALID,0,VALID,94.2933,VALID,-0.0509425,VALID,20.0628,VALID,119,VALID,0,
2000-05-19, 01:46:00,VALID,917.008,VALID,0,VALID,94.9507,VALID,-0.0169808,VALID,20.0464,VALID,119,VALID,0.0538862,
2000-05-19, 01:47:00,VALID,916.996,VALID,0,VALID,94.6125,VALID,-0.0169808,VALID,20.0046,VALID,119,VALID,0.134663,
2000-05-19, 01:48:00,VALID,916.982,VALID,0,VALID,94.203,VALID,-0.101885,VALID,19.9408,VALID,125,VALID,0.0873397,
2000-05-19, 01:49:00,VALID,916.968,VALID,0,VALID,94.746,VALID,-0.0509425,VALID,19.8983,VALID,134,VALID,0.420641,
2000-05-19, 01:50:00,VALID,916.944,VALID,0,VALID,94.4777,VALID,-0.0169808,VALID,19.8011,VALID,126,VALID,0.409455,
2000-05-19, 01:51:00,VALID,916.937,VALID,0,VALID,95.1071,VALID,-0.0679233,VALID,19.74,VALID,114,VALID,0.464227,
2000-05-19, 01:52:00,VALID,916.929,VALID,0,VALID,95.4225,VALID,-0.0679233,VALID,19.6888,VALID,99,VALID,0.634014,
2000-05-19, 01:53:00,VALID,916.925,VALID,0,VALID,95.9515,VALID,-0.0509425,VALID,19.6393,VALID,98,VALID,0.600946,
2000-05-19, 01:54:00,VALID,916.928,VALID,0,VALID,96.8327,VALID,-0.0509425,VALID,19.6788,VALID,93,VALID,0.901843,
2000-05-19, 01:55:00,VALID,916.914,VALID,0,VALID,96.8581,VALID,-0.0169808,VALID,19.6455,VALID,97,VALID,0.844161,
2000-05-19, 01:56:00,VALID,916.913,VALID,0,VALID,96.8797,VALID,-0.0339617,VALID,19.6202,VALID,94,VALID,0.785256,
2000-05-19, 01:57:00,VALID,916.908,VALID,0,VALID,97.0476,VALID,0,VALID,19.604,VALID,92,VALID,0.739309,
2000-05-19, 01:58:00,VALID,916.897,VALID,0,VALID,97.2612,VALID,-0.0339617,VALID,19.6043,VALID,92,VALID,0.620593,
2000-05-19, 01:59:00,VALID,916.888,VALID,0,VALID,97.2994,VALID,-0.0169808,VALID,19.5881,VALID,82,VALID,0.550576,
2000-05-19, 02:00:00,VALID,916.856,VALID,0,VALID,97.5473,VALID,0,VALID,19.6234,VALID,90,VALID,0.704527,
2000-05-19, 02:01:00,VALID,916.841,VALID,0,VALID,97.7165,VALID,0,VALID,19.6585,VALID,95,VALID,0.971423,
2000-05-19, 02:02:00,VALID,916.836,VALID,0,VALID,97.3134,VALID,0,VALID,19.617,VALID,101,VALID,0.588942,
2000-05-19, 02:03:00,VALID,916.823,VALID,0,VALID,97.2421,VALID,0,VALID,19.6207,VALID,86,VALID,0.802015,
2000-05-19, 02:04:00,VALID,916.804,VALID,0,VALID,97.3731,VALID,-0.0169808,VALID,19.6428,VALID,88,VALID,0.709535,
2000-05-19, 02:05:00,VALID,916.786,VALID,0,VALID,97.1226,VALID,0,VALID,19.6075,VALID,81,VALID,0.621299,
2000-05-19, 02:06:00,VALID,916.77,VALID,0,VALID,97.4253,VALID,-0.0509425,VALID,19.6403,VALID,87,VALID,0.863181,
2000-05-19, 02:07:00,VALID,916.764,VALID,0,VALID,97.2867,VALID,-0.0509425,VALID,19.6272,VALID,86,VALID,0.641036,
2000-05-19, 02:08:00,VALID,916.741,VALID,0,VALID,97.1302,VALID,-0.0339617,VALID,19.6103,VALID,84,VALID,0.510617,
2000-05-19, 02:09:00,VALID,916.719,VALID,0,VALID,97.3019,VALID,-0.0679233,VALID,19.6304,VALID,80,VALID,0.702508,
2000-05-19, 02:10:00,VALID,916.698,VALID,0,VALID,97.3553,VALID,-0.0509425,VALID,19.6396,VALID,82,VALID,0.638221,
2000-05-19, 02:11:00,VALID,916.695,VALID,0,VALID,97.0629,VALID,-0.0169808,VALID,19.5874,VALID,79,VALID,0.575658,
2000-05-19, 02:12:00,VALID,916.701,VALID,0,VALID,96.8632,VALID,0.0169808,VALID,19.526,VALID,91,VALID,0.608974,
2000-05-19, 02:13:00,VALID,916.689,VALID,0,VALID,96.7818,VALID,0,VALID,19.4786,VALID,85,VALID,0.757196,
2000-05-19, 02:14:00,VALID,916.705,VALID,0,VALID,97.073,VALID,0,VALID,19.4589,VALID,81,VALID,0.536458,
2000-05-19, 02:15:00,VALID,916.714,VALID,0,VALID,97.1748,VALID,0,VALID,19.4299,VALID,82,VALID,0.395354,
2000-05-19, 02:16:00,VALID,916.715,VALID,0,VALID,97.4049,VALID,0,VALID,19.4299,VALID,84,VALID,0.71855,
2000-05-19, 02:17:00,VALID,916.708,VALID,0,VALID,97.8589,VALID,0,VALID,19.5173,VALID,89,VALID,0.718339,
2000-05-19, 02:18:00,VALID,916.705,VALID,0,VALID,97.8525,VALID,0,VALID,19.5263,VALID,85,VALID,0.655048,
2000-05-19, 02:19:00,VALID,916.703,VALID,0,VALID,98.056,VALID,0,VALID,19.5904,VALID,83,VALID,0.82278,
2000-05-19, 02:20:00,VALID,916.698,VALID,0,VALID,98.0801,VALID,0,VALID,19.6455,VALID,86,VALID,0.782051,
2000-05-19, 02:21:00,VALID,916.685,VALID,0,VALID,98.1946,VALID,0,VALID,19.7293,VALID,83,VALID,0.841211,
2000-05-19, 02:22:00,VALID,916.675,VALID,0,VALID,98.1539,VALID,0,VALID,19.7484,VALID,82,VALID,0.821314,
2000-05-19, 02:23:00,VALID,916.678,VALID,0,VALID,98.1552,VALID,-0.0339617,VALID,19.7912,VALID,87,VALID,0.83676,
2000-05-19, 02:24:00,VALID,916.687,VALID,0,VALID,97.9695,VALID,0,VALID,19.824,VALID,74,VALID,0.803886,
2000-05-19, 02:25:00,VALID,916.697,VALID,0,VALID,97.7101,VALID,-0.0339617,VALID,19.8302,VALID,66,VALID,0.554482,
2000-05-19, 02:26:00,VALID,916.676,VALID,0,VALID,97.5906,VALID,0.0169808,VALID,19.8359,VALID,76,VALID,0.666266,
2000-05-19, 02:27:00,VALID,916.664,VALID,0,VALID,97.5995,VALID,0,VALID,19.8749,VALID,89,VALID,1.08923,
2000-05-19, 02:28:00,VALID,916.639,VALID,0,VALID,97.6821,VALID,0.0169808,VALID,19.9592,VALID,93,VALID,1.31711,
2000-05-19, 02:29:00,VALID,916.625,VALID,0,VALID,97.2282,VALID,-0.0169808,VALID,19.9855,VALID,97,VALID,0.920847,
2000-05-19, 02:30:00,VALID,916.596,VALID,0,VALID,96.6432,VALID,-0.0339617,VALID,19.9559,VALID,81,VALID,0.728365,
2000-05-19, 02:31:00,VALID,916.57,VALID,0,VALID,96.8187,VALID,0,VALID,19.9656,VALID,80,VALID,0.852796,
2000-05-19, 02:32:00,VALID,916.537,VALID,0,VALID,96.5377,VALID,-0.0679233,VALID,19.9699,VALID,88,VALID,0.90645,
2000-05-19, 02:33:00,VALID,916.522,VALID,0,VALID,96.2363,VALID,-0.0169808,VALID,19.9497,VALID,85,VALID,0.601563,
2000-05-19, 02:34:00,VALID,916.515,VALID,0,VALID,96.3024,VALID,0,VALID,19.9336,VALID,86,VALID,0.615585,
2000-05-19, 02:35:00,VALID,916.488,VALID,0,VALID,96.5847,VALID,-0.0339617,VALID,19.9368,VALID,82,VALID,0.784539,
2000-05-19, 02:36:00,VALID,916.484,VALID,0,VALID,96.5949,VALID,-0.0339617,VALID,19.9241,VALID,81,VALID,0.663662,
2000-05-19, 02:37:00,VALID,916.473,VALID,0,VALID,96.731,VALID,-0.0169808,VALID,19.9363,VALID,88,VALID,1.26521,
2000-05-19, 02:38:00,VALID,916.476,VALID,0,VALID,95.8497,VALID,0,VALID,19.9241,VALID,85,VALID,0.59996,
2000-05-19, 02:39:00,VALID,916.456,VALID,0,VALID,96.1664,VALID,0,VALID,19.9037,VALID,101,VALID,0.982525,
2000-05-19, 02:40:00,VALID,916.417,VALID,0,VALID,96.6636,VALID,0,VALID,19.95,VALID,105,VALID,1.16787,
2000-05-19, 02:41:00,VALID,916.387,VALID,0,VALID,95.8447,VALID,-0.0509425,VALID,19.8856,VALID,91,VALID,1.42414,
2000-05-19, 02:42:00,VALID,916.365,VALID,0,VALID,96.6598,VALID,-0.0339617,VALID,19.9206,VALID,88,VALID,1.56811,
2000-05-19, 02:43:00,VALID,916.364,VALID,0,VALID,96.7475,VALID,0,VALID,19.9728,VALID,81,VALID,1.11965,
2000-05-19, 02:44:00,VALID,916.363,VALID,0,VALID,96.7144,VALID,-0.0169808,VALID,19.988,VALID,86,VALID,0.75621,
2000-05-19, 02:45:00,VALID,916.352,VALID,0,VALID,96.7602,VALID,-0.0169808,VALID,20.0138,VALID,84,VALID,0.529605,
2000-05-19, 02:46:00,VALID,916.331,VALID,0,VALID,96.5122,VALID,0,VALID,20.0138,VALID,85,VALID,0.872196,
2000-05-19, 02:47:00,VALID,916.319,VALID,0,VALID,96.4181,VALID,0,VALID,20.0171,VALID,88,VALID,1.05859,
2000-05-19, 02:48:00,VALID,916.311,VALID,0,VALID,96.4245,VALID,-0.0169808,VALID,20.0109,VALID,89,VALID,0.831731,
2000-05-19, 02:49:00,VALID,916.286,VALID,0,VALID,96.3686,VALID,0,VALID,20.0079,VALID,103,VALID,1.05345,
2000-05-19, 02:50:00,VALID,916.268,VALID,0,VALID,96.3813,VALID,0,VALID,20.0211,VALID,100,VALID,1.16286,
2000-05-19, 02:51:00,VALID,916.243,VALID,0,VALID,96.2706,VALID,0,VALID,20.0235,VALID,104,VALID,0.909128,
2000-05-19, 02:52:00,VALID,916.23,VALID,0,VALID,95.9286,VALID,-0.0679233,VALID,20.0017,VALID,104,VALID,0.844752,
2000-05-19, 02:53:00,VALID,916.225,VALID,0,VALID,96.0214,VALID,0.0169808,VALID,20.0012,VALID,110,VALID,0.789885,
2000-05-19, 02:54:00,VALID,916.224,VALID,0,VALID,95.8892,VALID,0.0509425,VALID,19.9676,VALID,104,VALID,0.997396,
2000-05-19, 02:55:00,VALID,916.229,VALID,0,VALID,95.5725,VALID,0.0509425,VALID,19.9323,VALID,103,VALID,0.822985,
2000-05-19, 02:56:00,VALID,916.251,VALID,0,VALID,95.804,VALID,0.0849042,VALID,19.9,VALID,106,VALID,0.739583,
2000-05-19, 02:57:00,VALID,916.259,VALID,0,VALID,96.1028,VALID,0.0679233,VALID,19.8806,VALID,114,VALID,0.644737,
2000-05-19, 02:58:00,VALID,916.273,VALID,0,VALID,96.0138,VALID,0.0679233,VALID,19.8615,VALID,122,VALID,0.557292,
2000-05-19, 02:59:00,VALID,916.287,VALID,0,VALID,96.3317,VALID,0.0849042,VALID,19.8607,VALID,132,VALID,0.432566,
2000-05-19, 03:00:00,VALID,916.303,VALID,0,VALID,96.5555,VALID,0.0509425,VALID,19.8903,VALID,129,VALID,0.485176,
2000-05-19, 03:01:00,VALID,916.309,VALID,0,VALID,96.3864,VALID,0.0849042,VALID,19.9065,VALID,110,VALID,0.720189,
2000-05-19, 03:02:00,VALID,916.297,VALID,0,VALID,96.1613,VALID,0.101885,VALID,19.9221,VALID,115,VALID,0.853566,
2000-05-19, 03:03:00,VALID,916.271,VALID,0,VALID,95.7785,VALID,0.101885,VALID,19.9189,VALID,108,VALID,0.771998,
2000-05-19, 03:04:00,VALID,916.263,VALID,0,VALID,95.8103,VALID,0.0679233,VALID,19.9055,VALID,99,VALID,0.774439,
2000-05-19, 03:05:00,VALID,916.255,VALID,0,VALID,95.762,VALID,0.101885,VALID,19.9154,VALID,112,VALID,0.785567,
2000-05-19, 03:06:00,VALID,916.259,VALID,0,VALID,95.6005,VALID,0.0849042,VALID,19.9291,VALID,99,VALID,0.609776,
2000-05-19, 03:07:00,VALID,916.25,VALID,0,VALID,95.5026,VALID,0.101885,VALID,19.8866,VALID,94,VALID,0.770559,
2000-05-19, 03:08:00,VALID,916.238,VALID,0,VALID,95.5585,VALID,0.0169808,VALID,19.9037,VALID,94,VALID,0.614984,
2000-05-19, 03:09:00,VALID,916.237,VALID,0,VALID,95.3271,VALID,-0.0509425,VALID,19.8923,VALID,89,VALID,0.482936,
2000-05-19, 03:10:00,VALID,916.237,VALID,0,VALID,95.4975,VALID,-0.0849042,VALID,19.9055,VALID,70,VALID,0.576122,
2000-05-19, 03:11:00,VALID,916.243,VALID,0,VALID,95.4861,VALID,-0.0849042,VALID,19.8988,VALID,76,VALID,0.797492,
2000-05-19, 03:12:00,VALID,916.23,VALID,0,VALID,95.6221,VALID,-0.0679233,VALID,19.9564,VALID,78,VALID,0.678085,
2000-05-19, 03:13:00,VALID,916.214,VALID,0,VALID,95.3525,VALID,-0.0339617,VALID,20.0477,VALID,88,VALID,0.800781,
2000-05-19, 03:14:00,VALID,916.231,VALID,0,VALID,94.9062,VALID,0,VALID,20.0695,VALID,83,VALID,0.373397,
2000-05-19, 03:15:00,VALID,916.245,VALID,0,VALID,94.7409,VALID,-0.0339617,VALID,20.0829,VALID,82,VALID,0,
2000-05-19, 03:16:00,VALID,916.253,VALID,0,VALID,94.5565,VALID,-0.0509425,VALID,20.0792,VALID,82,VALID,0,
2000-05-19, 03:17:00,VALID,916.262,VALID,0,VALID,93.9703,VALID,-0.0509425,VALID,20.0628,VALID,82,VALID,0,
2000-05-19, 03:18:00,VALID,916.265,VALID,0,VALID,94.086,VALID,-0.0679233,VALID,20.0342,VALID,82,VALID,0,
2000-05-19, 03:19:00,VALID,916.272,VALID,0,VALID,94.5552,VALID,-0.0339617,VALID,20.0181,VALID,82,VALID,0,
2000-05-19, 03:20:00,VALID,916.276,VALID,0,VALID,94.6684,VALID,-0.0339617,VALID,20.0054,VALID,82,VALID,0,
2000-05-19, 03:21:00,VALID,916.285,VALID,0,VALID,94.3963,VALID,-0.0849042,VALID,19.9497,VALID,88,VALID,0,
2000-05-19, 03:22:00,VALID,916.262,VALID,0,VALID,94.1178,VALID,-0.0509425,VALID,19.8662,VALID,98,VALID,0,
2000-05-19, 03:23:00,VALID,916.247,VALID,0,VALID,94.6252,VALID,-0.0679233,VALID,19.7688,VALID,98,VALID,0.0797697,
2000-05-19, 03:24:00,VALID,916.231,VALID,0,VALID,95.2419,VALID,-0.0339617,VALID,19.7072,VALID,98,VALID,0.257412,
2000-05-19, 03:25:00,VALID,916.228,VALID,0,VALID,95.7747,VALID,-0.0339617,VALID,19.6945,VALID,98,VALID,0.205181,
2000-05-19, 03:26:00,VALID,916.212,VALID,0,VALID,95.94,VALID,-0.0339617,VALID,19.6913,VALID,98,VALID,0,
2000-05-19, 03:27:00,VALID,916.202,VALID,0,VALID,95.9082,VALID,-0.0339617,VALID,19.6885,VALID,98,VALID,0,
2000-05-19, 03:28:00,VALID,916.196,VALID,0,VALID,95.9502,VALID,0,VALID,19.6853,VALID,98,VALID,0,
2000-05-19, 03:29:00,VALID,916.185,VALID,0,VALID,95.8764,VALID,-0.0339617,VALID,19.6659,VALID,98,VALID,0,
2000-05-19, 03:30:00,VALID,916.176,VALID,0,VALID,95.809,VALID,-0.0169808,VALID,19.6525,VALID,98,VALID,0,
2000-05-19, 03:31:00,VALID,916.155,VALID,0,VALID,95.7811,VALID,0,VALID,19.6495,VALID,98,VALID,0,
2000-05-19, 03:32:00,VALID,916.148,VALID,0,VALID,95.7531,VALID,0,VALID,19.6431,VALID,105,VALID,0,
2000-05-19, 03:33:00,VALID,916.136,VALID,0,VALID,95.8599,VALID,0,VALID,19.6334,VALID,122,VALID,0,
2000-05-19, 03:34:00,VALID,916.13,VALID,0,VALID,95.879,VALID,0.0169808,VALID,19.6366,VALID,129,VALID,0,
2000-05-19, 03:35:00,VALID,916.124,VALID,0,VALID,95.8497,VALID,0,VALID,19.6232,VALID,142,VALID,0,
2000-05-19, 03:36:00,VALID,916.127,VALID,0,VALID,95.6463,VALID,-0.0169808,VALID,19.6272,VALID,143,VALID,0,
2000-05-19, 03:37:00,VALID,916.137,VALID,0,VALID,95.4644,VALID,-0.0169808,VALID,19.611,VALID,142,VALID,0,
2000-05-19, 03:38:00,VALID,916.148,VALID,0,VALID,95.4911,VALID,0,VALID,19.5983,VALID,147,VALID,0,
2000-05-19, 03:39:00,VALID,916.147,VALID,0,VALID,95.0143,VALID,-0.0169808,VALID,19.5529,VALID,169,VALID,0,
2000-05-19, 03:40:00,VALID,916.157,VALID,0,VALID,95.3475,VALID,-0.0169808,VALID,19.5014,VALID,175,VALID,0,